Regional Weather Roundup
Issued by NWS Jackson, KY

Home | Current Version | Previous Version | Text Only | Print | Product List | Glossary On
Versions: 1 2 3 4 5 6 7 8 9 10 11 12 13 14 15 16 17 18 19 20 21 22 23 24 25 26 27
000
ASUS43 KJKL 291410
RWRJKL

EAST KENTUCKY HOURLY WEATHER ROUNDUP
NATIONAL WEATHER SERVICE JACKSON KY
1000 AM EDT SAT APR 29 2017

NOTE: "FAIR" INDICATES FEW OR NO CLOUDS BELOW 12,000 FEET WITH
NO SIGNIFICANT WEATHER AND/OR OBSTRUCTIONS TO VISIBILITY.

* THESE REPORTS ARE NOT UNDER NWS QUALITY CONTROL AND MAY NOT
  REPORT WEATHER SUCH AS PRECIPITATION AND FOG.

KYZ079-080-083-085-087-088-110-112-115-119-120-291500
...EASTERN KENTUCKY...

CITY           SKY/WX    TMP DP  RH WIND       PRES   REMARKS
JACKSON        CLOUDY    75  66  73 VRB3      30.12R
LONDON         CLOUDY    76  65  68 S6        30.11R
SOMERSET*      PTSUNNY   73  64  73 S8        30.10R
MONTICELLO*    CLOUDY    78  68  71 E8        30.09R
WILLIAMSBURG*  CLOUDY    77  68  73 S6        30.10R
MIDDLESBORO*   MOSUNNY   77  65  66 S7        30.12S
HARLAN APT*    SUNNY     77  61  57 CALM      30.13S
PIKE CO APT*     N/A     74  65  72 SE3       30.14R
BIG SANDY APT* CLOUDY    76  65  67 SE5       30.13R
MOREHEAD APT*  CLOUDY    68  63  83 S6        30.10R
$$

KYZ035-036-041-042-044-050-067-078-099-291500
...CENTRAL KENTUCKY...

CITY           SKY/WX    TMP DP  RH WIND       PRES   REMARKS
MT STERLING*   CLOUDY    72  66  83 SW7       30.09R
FLEMING/MASON* CLOUDY    66  62  86 S7        30.08R
DANVILLE*      MOSUNNY   75  66  73 SW9       30.08R
LEXINGTON      CLOUDY    74  66  76 S10       30.06R
FRANKFORT      CLOUDY    70  63  78 S6        30.05R
LOUISVILLE     LGT RAIN  66  64  93 NE3       30.06R
LEBANON*         N/A     75  66  73 S15       30.07R
GLASGOW*       CLOUDY    77  67  71 S8        30.04R
BOWLING GREEN  CLOUDY    79  70  74 S12       30.03R
$$

KYZ091>093-OHZ055-061-077-WVZ005-015-034-035-042-291500
...SOUTHERN OHIO/WEST VIRGINIA...

CITY           SKY/WX    TMP DP  RH WIND       PRES   REMARKS
COVINGTON      TSTM      62  61  96 S8        30.09R FOG
COLUMBUS       TSTM      62  62 100 E7        30.05F FOG
DAYTON         TSTM      62  62 100 S9        30.06S FOG
WILMINGTON     TSTM      62  62 100 NW7       30.10R FOG
HUNTINGTON     CLOUDY    70  63  78 SE3       30.09R
CHARLESTON     CLOUDY    71  63  75 S3        30.12S
PINEVILLE*     SUNNY     78  61  57 MISG      30.21S
BECKLEY        CLOUDY    71  59  65 NE5       30.21S
BLUEFIELD      CLOUDY    73  56  54 SE8       30.23S
LOGAN CO APT*    N/A     77  63  61 CALM      30.14F
$$

VAZ002-007-008-TNZ017-027-036-066-071-291500
...SOUTHWEST VIRGINIA/EAST TENNESSEE...

CITY           SKY/WX    TMP DP  RH WIND       PRES   REMARKS
WISE*          SUNNY     73  59  60 S13       30.21R
JONESVILLE*      N/A     75  63  64 CALM      30.16S
ABINGDON*      CLOUDY    73  64  73 E7        30.19F
BRISTOL        CLOUDY    73  64  73 CALM      30.16S
MORRISTOWN*    SUNNY     73  66  78 NE3       30.13S
SEVIERVILLE*   SUNNY     72  64  78 NE3       30.11S
KNOXVILLE      CLOUDY    76  66  71 N5        30.10S
LAFOLLETTE*    SUNNY     79  68  69 S12       30.13S
OAK RIDGE      CLOUDY    80  66  62 VRB3      30.12R
CROSSVILLE     CLOUDY    74  65  73 S9G20     30.13R
NASHVILLE      PTSUNNY   77  68  73 S10       30.02R
$$

...KEY TO REMARKS...
VSB - VISIBILITY IN MILES
WCI - WIND CHILL INDEX
HX  - HEAT INDEX

$$




USA.gov is the U.S. government's official web portal to all federal, state and local government web resources and services.